Probability
87 81 84 84 84 97 97 100 97 97 97 90 87 87 87 81 77 77 74 52 45 48 55 74 77 71 77 81 71 84 81 84 90 77 71 81 87 84 84 71 48 42 39
81 84 87 87 87 94 90 100 97 87 87 94 94 94 84 74 74 77 68 58 48 45 26 65 58 61 68 71 77 84 84 58 68 71 65 45 55 84 68 74 58 52 45
77 77 77 84 87 87 94 87 94 90 94 97 97 87 94 90 90 81 87 77 45 39 48 45 55 61 58 52 65 58 58 48 55 65 58 52 29 45 74 71 58 68 65
61 58 65 74 77 77 77 90 100 97 97 94 97 90 87 94 84 90 90 87 74 61 45 45 42 58 52 48 45 42 45 45 32 42 68 68 58 39 32 35 52 74 58
42 45 52 65 68 65 77 87 87 87 90 97 94 90 87 94 94 94 94 94 87 81 68 52 52 55 58 55 42 42 52 42 35 39 39 45 52 52 35 19 29 48 65
29 35 39 52 52 55 55 65 87 84 84 84 87 87 90 90 87 87 90 84 90 94 74 55 58 55 55 55 45 35 29 32 39 39 39 29 35 35 39 16 19 13 35
23 29 32 39 32 35 42 48 55 68 71 74 77 84 87 87 90 87 90 90 81 81 81 65 71 58 55 48 48 42 32 29 35 35 32 32 29 26 26 26 23 19 29
6 13 3 10 13 23 23 26 32 42 45 42 52 71 71 77 71 81 77 68 77 84 84 68 61 58 61 32 48 35 32 26 39 19 29 32 19 23 23 23 26 10 13
0 0 0 0 0 6 6 6 16 16 16 16 23 39 29 42 48 61 61 61 65 61 68 74 71 65 55 55 58 23 32 29 26 23 19 19 16 13 16 19 19 10 3
0 0 0 0 0 0 3 6 6 10 13 6 13 3 13 16 23 16 32 52 58 61 58 61 55 71 58 55 48 26 29 29 26 32 19 19 13 16 13 16 23 16 6
0 0 0 0 0 0 0 0 3 3 6 6 10 6 10 10 10 16 13 19 26 48 58 48 42 39 42 35 39 19 26 19 16 13 10 10 13 13 6 6 13 16 10
0 0 0 0 0 0 0 0 0 0 0 3 3 3 10 10 10 6 10 10 16 26 29 39 32 23 13 23 23 23 13 10 6 6 6 6 6 10 13 13 13 16 13
0 0 0 0 0 0 0 0 0 0 0 0 0 3 3 3 3 3 6 3 13 10 13 23 23 19 13 13 13 16 10 3 3 3 3 3 0 3 6 10 16 16 6
0 0 0 0 0 0 0 0 0 0 0 0 0 0 3 3 3 3 3 3 6 3 6 6 10 6 3 3 6 6 3 3 3 0 0 0 0 0 6 6 10 6 3
0 0 0 0 0 0 0 0 0 0 0 0 0 0 3 3 3 3 3 3 3 0 0 3 6 0 3 0 0 3 0 0 0 0 0 0 0 0 0 0 0 3 0
0 0 0 0 0 0 0 0 0 0 0 0 0 0 0 3 3 6 3 3 3 0 0 0 0 0 0 0 0 0 0 0 0 0 0 0 0 0 0 0 0 0 0
0 0 0 0 0 0 0 0 0 0 0 0 0 0 0 0 0 0 0 0 0 0 0 0 0 0 0 0 0 0 0 0 0 0 0 0 0 0 0 0 0 0 0
0 0 0 0 0 0 0 0 0 0 0 0 0 0 0 0 3 3 6 3 0 0 3 0 0 0 0 0 0 0 0 0 0 0 0 0 0 0 0 0 0 0 0
0 0 0 0 0 0 0 0 0 0 0 0 0 0 0 0 0 3 3 3 0 0 0 0 0 0 0 0 0 0 0 0 0 0 0 0 0 0 0 0 0 0 0
0 0 0 0 0 0 0 0 0 0 0 0 0 0 0 0 0 0 10 3 3 0 0 0 0 0 0 0 0 0 0 0 0 0 0 0 0 0 0 0 0 0 0
0 0 0 0 0 0 3 0 0 0 0 0 0 0 3 3 0 6 13 6 3 0 0 0 0 0 0 0 0 0 0 0 0 0 0 0 0 0 0 0 0 0 0
0 0 0 0 0 3 3 0 0 0 3 3 0 3 0 0 0 0 10 3 3 0 0 0 0 0 0 0 0 0 0 0 0 0 0 0 0 0 0 0 0 0 0
0 0 0 0 3 0 0 0 0 3 0 0 3 0 0 0 0 0 0 0 3 0 0 0 0 0 0 0 0 0 0 0 0 0 0 0 0 0 0 0 0 0 0
0 0 0 0 0 0 0 0 0 3 0 3 0 0 0 0 0 3 0 0 0 0 0 0 0 0 0 0 0 0 0 0 0 0 0 0 0 0 0 0 0 0 0
0 0 0 0 0 0 0 0 0 0 0 0 0 0 0 0 0 3 0 0 0 3 0 0 0 3 0 0 0 0 0 0 0 0 0 0 0 0 0 0 0 0 0
0 0 0 0 0 0 0 0 0 0 0 0 0 0 0 0 0 0 0 0 0 0 0 0 0 0 0 0 0 0 0 0 0 0 0 0 0 0 0 0 0 0 0
Height
5861 5861 5856 5856 5856 5855 5854 5854 5854 5853 5851 5849 5847 5845 5843 5841 5839 5837 5836 5834 5832 5831 5829 5828 5827 5826 5825 5824 5823 5821 5820 5819 5818 5817 5816 5816 5815 5814 5813 5813 5813 5813 5813
5853 5853 5852 5850 5850 5850 5849 5848 5847 5845 5844 5842 5840 5838 5835 5834 5832 5830 5829 5827 5826 5825 5823 5822 5821 5820 5819 5818 5817 5816 5815 5814 5812 5811 5810 5810 5810 5807 5807 5807 5806 5806 5806
5845 5845 5846 5845 5844 5842 5842 5841 5840 5837 5836 5834 5832 5830 5828 5826 5825 5823 5822 5821 5820 5818 5817 5816 5815 5814 5813 5812 5811 5810 5809 5808 5806 5805 5804 5804 5803 5802 5801 5800 5800 5800 5800
5837 5838 5838 5838 5837 5835 5835 5834 5832 5830 5829 5826 5823 5822 5821 5819 5817 5816 5814 5814 5813 5812 5811 5810 5809 5808 5807 5806 5805 5804 5802 5802 5801 5799 5798 5797 5796 5795 5795 5794 5793 5793 5793
5832 5832 5831 5831 5830 5829 5827 5825 5823 5823 5821 5818 5816 5814 5812 5811 5810 5809 5807 5806 5805 5805 5804 5803 5802 5801 5800 5799 5798 5797 5796 5795 5794 5793 5792 5790 5789 5788 5787 5788 5786 5786 5786
5827 5827 5825 5824 5822 5821 5820 5817 5815 5814 5812 5810 5808 5806 5805 5803 5802 5801 5799 5798 5797 5797 5796 5795 5794 5793 5792 5791 5791 5790 5789 5788 5787 5786 5785 5784 5782 5781 5780 5780 5779 5779 5779
5824 5823 5820 5819 5816 5813 5812 5809 5807 5805 5803 5801 5799 5797 5796 5794 5793 5792 5791 5789 5788 5787 5787 5786 5785 5785 5784 5783 5782 5781 5781 5780 5779 5778 5777 5776 5775 5773 5772 5771 5771 5771 5771
5819 5816 5814 5811 5809 5806 5804 5801 5798 5795 5793 5791 5789 5787 5785 5784 5783 5781 5780 5779 5779 5778 5777 5776 5775 5774 5774 5773 5773 5773 5772 5771 5771 5770 5769 5768 5767 5766 5764 5763 5763 5763 5763
5812 5809 5806 5803 5800 5797 5794 5791 5788 5785 5783 5780 5777 5775 5773 5771 5770 5769 5768 5768 5767 5767 5766 5765 5765 5764 5763 5763 5763 5762 5762 5762 5762 5761 5761 5760 5759 5758 5756 5755 5754 5754 5754
5804 5800 5797 5794 5790 5786 5782 5779 5776 5773 5770 5767 5764 5762 5760 5758 5757 5756 5755 5754 5754 5754 5754 5754 5753 5753 5753 5752 5752 5752 5752 5752 5752 5752 5752 5751 5750 5749 5748 5747 5746 5745 5745
5795 5790 5786 5782 5778 5774 5770 5766 5762 5759 5756 5752 5750 5747 5745 5743 5742 5741 5740 5739 5739 5739 5740 5740 5740 5740 5740 5740 5741 5741 5741 5742 5742 5742 5742 5742 5741 5741 5740 5739 5738 5737 5736
5785 5780 5775 5770 5765 5761 5756 5751 5748 5744 5740 5737 5734 5731 5729 5727 5725 5724 5723 5723 5723 5723 5724 5725 5726 5726 5727 5727 5728 5729 5730 5730 5731 5732 5732 5732 5732 5731 5731 5729 5728 5728 5727
5773 5768 5762 5756 5751 5746 5740 5736 5731 5727 5723 5719 5716 5713 5710 5708 5707 5705 5705 5705 5705 5705 5706 5708 5709 5711 5712 5714 5715 5716 5717 5719 5720 5721 5721 5722 5722 5722 5721 5720 5719 5719 5718
5760 5754 5748 5741 5735 5729 5723 5718 5713 5708 5703 5699 5696 5693 5690 5687 5686 5685 5684 5684 5685 5686 5687 5689 5691 5694 5696 5698 5700 5702 5704 5706 5708 5709 5710 5711 5711 5712 5712 5711 5711 5710 5710
5746 5739 5732 5724 5717 5711 5704 5698 5693 5687 5682 5678 5674 5671 5668 5666 5664 5663 5662 5662 5663 5664 5666 5668 5672 5675 5678 5681 5684 5687 5690 5693 5695 5697 5698 5700 5701 5701 5702 5702 5702 5702 5702
5730 5722 5713 5705 5697 5690 5683 5676 5670 5664 5659 5655 5651 5648 5645 5643 5641 5640 5640 5640 5641 5642 5643 5646 5650 5654 5658 5663 5667 5671 5675 5678 5682 5684 5686 5688 5690 5691 5692 5693 5693 5693 5694
5712 5703 5693 5684 5676 5668 5660 5654 5648 5642 5637 5633 5629 5626 5623 5621 5620 5619 5618 5618 5619 5619 5621 5624 5627 5632 5637 5643 5648 5653 5658 5663 5668 5671 5674 5677 5679 5681 5682 5683 5684 5685 5685
5694 5684 5674 5665 5656 5648 5641 5635 5629 5624 5619 5615 5611 5608 5605 5603 5602 5600 5599 5598 5598 5599 5600 5603 5606 5611 5616 5622 5629 5635 5641 5648 5653 5658 5662 5665 5668 5670 5672 5674 5675 5676 5677
5677 5667 5656 5647 5639 5632 5625 5619 5614 5609 5605 5601 5598 5595 5593 5591 5589 5587 5585 5584 5583 5583 5583 5585 5589 5593 5598 5603 5610 5617 5624 5632 5638 5644 5649 5653 5657 5660 5663 5664 5666 5668 5670
5659 5649 5639 5631 5624 5617 5611 5605 5601 5597 5593 5590 5587 5585 5582 5580 5579 5577 5575 5574 5572 5572 5572 5573 5575 5578 5582 5587 5594 5601 5609 5617 5624 5630 5637 5642 5647 5650 5653 5656 5658 5660 5662
5643 5633 5624 5616 5609 5603 5597 5593 5588 5584 5581 5578 5576 5574 5572 5570 5569 5568 5566 5564 5563 5563 5562 5563 5564 5566 5570 5575 5580 5587 5594 5602 5610 5618 5625 5631 5636 5641 5645 5648 5650 5653 5655
5628 5619 5610 5603 5597 5590 5584 5579 5575 5572 5568 5566 5564 5562 5561 5559 5558 5558 5557 5556 5555 5555 5554 5554 5555 5557 5560 5564 5569 5575 5582 5590 5599 5606 5614 5621 5627 5632 5636 5640 5644 5647 5649
5615 5606 5598 5590 5583 5577 5570 5565 5561 5557 5554 5552 5551 5549 5548 5548 5547 5547 5547 5547 5547 5547 5547 5547 5548 5550 5552 5555 5560 5566 5573 5581 5589 5596 5604 5611 5618 5624 5629 5633 5637 5641 5644
5603 5594 5585 5577 5569 5563 5556 5550 5546 5542 5540 5538 5537 5536 5535 5536 5536 5536 5537 5538 5539 5539 5540 5541 5542 5543 5545 5549 5553 5558 5565 5572 5580 5588 5596 5603 5610 5617 5622 5628 5632 5636 5640
5592 5581 5572 5563 5555 5548 5542 5536 5531 5527 5525 5524 5523 5523 5523 5524 5525 5526 5527 5528 5530 5531 5532 5534 5535 5537 5540 5543 5547 5552 5559 5566 5574 5582 5590 5598 5605 5611 5617 5623 5628 5632 5637
5580 5570 5560 5551 5542 5535 5528 5523 5518 5514 5512 5511 5511 5511 5511 5512 5514 5516 5518 5519 5521 5523 5525 5527 5529 5531 5535 5538 5543 5548 5554 5561 5569 5577 5585 5593 5600 5607 5613 5619 5624 5629 5634
Wind_Speed
37 36 35 36 37 37 37 36 37 38 38 38 38 38 36 33 32 29 28 28 27 27 26 25 25 24 24 23 23 23 23 23 23 23 23 23 24 24 24 24 25 26 26
37 36 35 35 35 36 36 37 38 39 39 39 39 38 36 34 32 30 28 27 26 26 26 25 25 25 24 24 24 24 23 23 24 24 24 24 24 25 25 25 24 25 25
33 31 33 34 34 35 35 38 39 39 40 41 39 38 35 34 31 29 28 27 26 26 26 26 26 25 25 25 25 25 25 25 25 26 25 25 25 25 25 25 25 25 25
28 29 30 32 34 35 36 38 39 40 40 39 38 37 35 32 29 29 29 28 27 26 27 27 27 27 27 27 27 27 27 26 26 27 27 27 26 26 24 25 25 26 26
28 28 30 32 33 35 36 37 37 38 39 38 39 37 34 32 31 30 30 30 29 29 28 29 29 29 29 29 29 29 29 28 28 28 28 28 27 28 26 25 26 26 26
26 27 29 30 32 34 35 36 36 37 38 37 38 38 36 34 33 33 33 32 32 32 31 31 31 31 32 32 32 31 31 31 30 30 29 29 29 29 29 27 26 27 27
30 31 30 31 33 34 35 37 38 39 39 39 40 39 38 37 36 36 35 34 34 34 34 34 33 33 34 34 34 33 33 32 32 31 31 30 30 30 30 29 28 28 28
34 34 34 35 36 38 39 41 42 42 43 43 43 43 43 42 41 40 39 38 38 37 37 37 36 36 36 36 36 35 35 34 34 33 32 32 31 31 31 30 29 29 28
38 38 39 39 40 42 44 45 46 47 47 48 48 48 48 47 46 45 44 43 42 41 40 40 39 39 38 38 38 37 37 36 35 34 33 33 32 32 31 31 31 30 29
41 42 43 43 44 46 47 48 49 50 51 52 52 53 52 52 51 50 50 49 47 45 43 43 42 41 41 40 39 39 38 38 37 35 35 34 33 33 33 32 32 32 31
45 46 47 48 48 49 51 51 52 53 54 55 55 56 56 56 55 55 54 53 52 50 48 46 45 44 43 42 41 40 39 39 38 37 36 36 35 34 34 33 33 33 33
49 50 51 52 53 53 54 55 56 57 58 58 59 59 59 59 59 59 58 57 56 55 54 51 49 47 46 45 43 42 41 40 39 38 37 37 36 35 34 34 33 33 33
52 54 55 55 56 57 58 58 59 60 61 62 63 63 64 64 64 64 63 62 61 60 59 56 54 52 50 47 45 44 43 42 40 39 38 38 37 36 35 34 33 32 32
56 56 57 58 59 60 61 62 63 64 64 65 65 66 66 67 67 67 67 67 65 64 63 62 59 56 54 51 48 47 45 43 41 40 39 39 38 37 36 35 34 32 31
59 60 61 62 63 64 65 66 66 66 66 66 66 66 67 67 68 68 68 68 68 67 66 65 63 60 57 54 52 49 46 45 43 42 41 40 39 37 37 35 34 32 31
63 64 66 67 68 68 68 68 67 66 66 65 64 64 65 65 64 64 65 65 65 65 66 66 64 62 60 58 55 52 50 47 45 43 42 40 38 37 36 35 34 32 30
66 68 69 69 69 68 66 64 62 60 59 58 57 57 56 57 57 57 57 58 58 59 61 62 62 61 60 59 56 53 51 49 47 45 42 40 38 37 35 34 33 31 30
67 68 67 66 64 61 58 55 53 51 50 48 46 44 42 42 42 43 44 46 48 49 51 54 56 56 56 55 54 52 51 49 47 45 43 40 38 36 35 33 32 30 29
65 65 63 61 57 53 51 48 46 44 42 39 37 35 34 32 31 31 32 33 35 37 39 42 44 46 48 49 49 49 48 47 46 44 42 40 37 36 34 32 30 28 27
64 62 59 55 51 49 47 45 42 40 38 36 33 31 30 30 29 29 29 29 29 30 31 32 35 37 39 42 44 46 46 44 43 43 41 39 36 34 32 30 28 26 25
59 56 53 50 47 45 44 42 41 40 38 36 34 33 32 31 30 29 28 27 27 27 27 26 28 29 32 35 38 41 42 42 40 40 39 37 35 32 31 28 26 25 24
54 51 49 47 46 45 44 43 42 41 39 38 37 36 34 33 32 30 28 27 26 25 24 24 24 26 27 29 32 36 37 38 37 37 36 35 33 31 29 27 24 23 22
51 50 49 48 47 47 46 45 43 42 41 39 38 36 35 34 32 30 28 27 26 24 22 21 21 22 24 25 26 30 34 36 34 34 34 33 31 29 27 24 22 20 19
51 50 50 49 47 47 47 45 43 42 41 39 38 36 35 33 31 30 28 27 25 24 23 21 19 20 22 22 23 26 30 33 32 30 31 30 29 28 25 23 21 19 18
51 50 50 49 47 47 45 43 41 39 38 37 35 34 33 31 30 28 27 26 25 24 23 21 20 20 20 20 21 25 29 30 31 29 29 29 27 26 24 23 22 21 20
51 50 50 49 47 45 43 40 38 36 34 33 32 31 29 28 27 26 25 24 23 22 21 21 21 20 20 20 21 24 27 27 29 30 30 28 26 25 24 24 23 21 20
Wind_Direction
277 277 275 278 281 284 286 287 288 291 293 294 296 297 296 295 293 292 290 288 286 285 285 285 285 286 287 289 291 293 295 295 295 297 299 300 299 296 294 293 289 284 280
274 275 275 277 278 279 282 284 286 287 289 291 292 294 293 292 291 290 289 286 284 284 283 283 285 286 286 287 290 292 294 296 297 298 300 301 299 297 296 292 288 285 281
275 275 275 277 277 277 280 283 284 285 287 289 290 291 292 292 289 287 287 286 284 283 282 282 283 284 285 286 289 290 292 294 296 298 300 301 300 299 298 293 288 283 281
279 277 273 276 276 278 281 282 282 284 285 287 289 289 290 290 289 289 288 286 284 282 282 282 282 282 283 285 287 288 290 291 293 295 297 299 300 300 298 294 288 282 278
288 283 281 278 277 278 280 281 281 283 285 287 290 290 291 290 290 288 287 285 284 282 281 281 281 280 281 283 284 285 286 288 290 292 294 297 299 299 299 294 288 284 278
291 286 286 284 280 280 282 282 284 285 286 287 290 288 288 288 288 286 285 284 283 281 280 279 279 278 279 280 281 282 283 285 287 289 291 294 296 298 297 294 288 284 279
297 295 291 289 287 285 285 285 287 286 287 288 289 288 287 286 285 283 283 282 280 279 279 278 278 277 277 278 278 279 280 281 283 285 288 291 294 295 295 294 290 285 279
298 294 292 291 289 288 288 287 287 287 286 287 287 286 285 285 283 282 280 280 279 276 277 277 277 276 276 276 276 276 277 278 280 281 284 288 290 292 294 293 290 286 281
299 296 294 292 290 289 288 287 286 285 285 285 285 284 284 283 282 280 279 278 278 276 274 274 275 275 275 275 275 273 273 275 276 278 281 284 287 289 291 290 289 287 281
298 297 295 293 291 289 288 287 285 284 283 283 282 282 282 281 280 279 278 277 276 275 274 273 272 272 271 272 273 272 272 273 274 275 277 281 284 286 288 288 287 286 282
297 296 295 294 292 290 288 287 286 284 283 282 281 280 280 279 278 278 277 276 275 274 273 272 271 271 270 269 269 270 270 270 271 272 275 277 281 283 284 286 286 284 282
296 295 294 293 292 290 289 287 286 285 283 282 281 280 279 278 277 276 275 274 273 273 272 271 270 270 269 267 266 266 267 268 269 271 273 275 277 280 283 285 284 282 280
295 295 295 294 293 291 290 288 286 285 283 282 280 279 278 277 275 274 273 272 271 271 271 271 269 268 268 266 265 265 265 266 267 269 270 272 275 277 280 282 282 280 278
298 298 297 296 294 292 291 289 287 286 285 283 281 280 278 277 275 274 273 272 270 269 269 269 268 267 266 265 264 263 264 265 266 267 268 270 272 274 277 279 280 279 277
300 300 298 297 295 293 292 290 289 287 286 284 282 281 279 278 276 275 273 272 271 269 268 267 266 265 264 264 263 262 262 262 264 265 266 267 269 271 274 276 277 277 274
302 301 300 298 297 295 294 292 291 289 287 286 284 282 281 279 277 276 274 272 271 270 268 266 264 263 262 261 261 260 259 260 261 263 263 264 266 268 271 273 274 274 272
304 303 302 301 299 298 297 295 294 292 291 289 287 286 284 282 279 277 275 273 271 270 267 265 263 261 260 258 258 257 257 257 258 259 260 261 263 265 267 270 271 271 269
306 305 303 302 301 300 299 298 297 296 295 294 292 291 289 286 283 281 278 275 273 270 267 263 260 258 257 255 254 253 253 253 254 255 256 257 259 261 264 268 268 267 265
308 306 305 305 303 302 301 300 299 298 297 296 294 293 292 292 291 288 285 282 278 274 270 264 259 255 253 251 249 247 247 248 249 250 251 253 254 257 260 264 264 261 260
310 309 308 306 305 303 301 300 299 298 297 295 293 292 291 291 291 291 290 286 283 278 274 267 260 254 251 249 245 242 241 242 243 245 246 248 249 252 255 258 258 255 254
313 311 310 308 307 304 302 300 298 296 294 292 289 289 289 289 288 288 288 287 284 281 278 272 263 255 249 246 242 237 234 233 234 238 241 241 243 247 250 253 252 250 248
314 312 310 309 306 304 301 299 297 295 292 289 287 287 286 285 284 283 282 283 283 280 278 274 264 255 247 242 239 234 228 226 227 231 234 236 238 242 243 245 245 244 242
316 313 311 309 307 305 302 299 296 294 291 287 286 285 283 282 281 278 277 277 277 277 275 272 266 257 247 240 234 229 223 220 219 222 225 226 231 233 234 234 234 231 229
318 315 313 311 308 306 304 300 296 292 289 286 284 283 280 278 276 274 272 272 271 271 269 266 262 256 244 236 229 220 215 214 213 214 217 219 222 223 223 222 220 217 215
321 319 316 313 311 308 306 303 299 294 289 286 283 281 278 274 272 270 270 269 266 265 263 259 257 251 245 233 223 216 211 210 211 209 208 210 211 211 212 213 212 213 213
325 322 320 317 314 311 308 305 301 297 292 287 283 279 275 270 269 268 266 265 263 261 259 253 248 245 240 229 218 213 205 203 205 206 202 202 203 203 203 202 204 205 204